Buenos Aires, Argentina

4:33 PM America en Abril 25, 2018 (GMT +0000)
Jorge Newbery Aeroparque

Tiempo Historia de SABE - Abril, 2018

Change the Weather History Date:

Lunes, Abril 16, 2018

  Actual Average Record
Temperature  
Temperatura media 70 ° F -  
Temperatura máxima 73 ° F 68 ° F 78 ° F (2016)
Temperatura mínima 66 ° F 55 ° F 44 ° F (1999)
Cooling Degree Days 4    
Growing Degree Days 20 (Base 50)    
Moisture  
Punto de rocío 63 ° F    
Average Humidity 77    
Maximum Humidity 94    
Minimum Humidity 65    
Precipitación  
Precipitación 0.00 pul 0.10 pul - ()
Presión al nivel del mar  
Presión al nivel del mar 30.20 pul    
Viento  
Velocidad del viento 8 mph ()    
Velocidad máxima del viento 12 mph    
Max Gust Speed -    
Visibilidad 6.1 Millas    
Eventos      
Averages and records for this station are not official NWS values.
T = Trace of Precipitation, MM = Missing Value Source: Averaged Metar Reports

Daily Weather History Graph

Daily Weather History Graph

Search for Another Location

Airport or City:

Astronomía

Apr. 16, 2018 Salida Puesta
Hora real 7:17 AM -03 6:28 PM -03
Crepúsculo civil 6:52 AM -03 6:54 PM -03
Crepúsculo náutico 6:22 AM -03 7:23 PM -03
Crepúsculo astronómico 5:53 AM -03 7:52 PM -03
Luna 7:39 AM -03 (4/16) 7:15 PM -03 (4/16)
Horas de luz 12h 01m
Horas de luz
11h 10m
Luna nueva, 0% of the Moon is Illuminated
Abr 16
Luna nueva
Abr 22
Cuarto creciente
Abr 29
Luna llena
May 7
Cuarto menguante
May 15
Nueva

Hourly Weather History & Observations

Hora (-03) Temp. Punto de rocío Humedad Presión Visibilidad Wind Dir Velocidad del viento Velocidad de ráfagas Precip Eventos Condiciones
12:00 AM 69.8 ° F 60.8 ° F 73% 30.27 pul - NE 9.2 mph - N/A   Despejado
1:00 AM 69.8 ° F 60.8 ° F 73% 30.27 pul - NE 10.4 mph - N/A   Despejado
2:00 AM 68.0 ° F 60.8 ° F 78% 30.27 pul - NE 8.1 mph - N/A   Despejado
3:00 AM 68 ° F 62 ° F 74% 30.27 pul 6 mi NE 10.4 mph - -   Nubes dispersas
3:00 AM 68.0 ° F 62.6 ° F 83% 30.24 pul 6.2 mi NE 10.4 mph - N/A   Parcialmente nublado
4:00 AM 68.0 ° F 62.6 ° F 83% 30.24 pul 6.2 mi NE 9.2 mph - N/A   Nubes dispersas
5:00 AM 66.2 ° F 64.4 ° F 94% 30.24 pul 6.2 mi NNE 9.2 mph - N/A   Nubes dispersas
6:00 AM 67 ° F 64 ° F 85% 30.25 pul 6 mi NNE 11.5 mph - -   Muy nublado
6:00 AM 66.2 ° F 62.6 ° F 88% 30.24 pul 6.2 mi Norte 9.2 mph - N/A   Muy nublado
7:00 AM 66.2 ° F 62.6 ° F 88% 30.24 pul 6.2 mi Norte 9.2 mph - N/A   Muy nublado
8:00 AM 68.0 ° F 62.6 ° F 83% 30.24 pul 6.2 mi Norte 10.4 mph - N/A   Muy nublado
9:00 AM 67 ° F 63 ° F 82% 30.28 pul 6 mi Norte 10.4 mph - -   Muy nublado
9:00 AM 68.0 ° F 62.6 ° F 83% 30.27 pul 6.2 mi Norte 10.4 mph - N/A   Muy nublado
10:00 AM 68.0 ° F 62.6 ° F 83% 30.27 pul 6.2 mi Norte 9.2 mph - N/A   Muy nublado
11:00 AM 69.8 ° F 64.4 ° F 83% 30.27 pul 6.2 mi Norte 9.2 mph - N/A   Nubes dispersas
12:00 PM 72 ° F 64 ° F 71% 30.27 pul 6 mi NNE 5.8 mph - -   Nubes dispersas
12:00 PM 71.6 ° F 64.4 ° F 78% 30.24 pul 6.2 mi Norte 8.1 mph - N/A   Parcialmente nublado
1:00 PM 73.4 ° F 64.4 ° F 73% 30.24 pul 6.2 mi Norte 6.9 mph - N/A   Nubes dispersas
2:00 PM 75.2 ° F 66.2 ° F 73% 30.21 pul 6.2 mi Este 5.8 mph - N/A   Muy nublado
3:00 PM 73 ° F 64 ° F 67% 30.17 pul 6 mi Este 9.2 mph - -   Nubes dispersas
3:00 PM 73.4 ° F 66.2 ° F 78% 30.15 pul 6.2 mi Este 9.2 mph - N/A   Muy nublado
4:00 PM 75.2 ° F 64.4 ° F 69% 30.12 pul 6.2 mi Este 9.2 mph - N/A   Muy nublado
5:00 PM 75.2 ° F 62.6 ° F 65% 30.12 pul - Este 9.2 mph - N/A   Despejado
6:00 PM 72 ° F 63 ° F 66% 30.13 pul 6 mi ESE 10.4 mph - -   Despejado
6:00 PM 73.4 ° F 64.4 ° F 73% 30.09 pul - Este 9.2 mph - N/A   Despejado
7:00 PM 71.6 ° F 64.4 ° F 78% 30.09 pul - Este 10.4 mph - N/A   Despejado
8:00 PM 73.4 ° F 64.4 ° F 73% 30.09 pul - ENE 10.4 mph - N/A   Despejado
9:00 PM 74 ° F 65 ° F 65% 30.11 pul 6 mi NE 10.4 mph - -   Despejado
9:00 PM 73.4 ° F 64.4 ° F 73% 30.09 pul - NE 10.4 mph - N/A   Despejado
10:00 PM 73.4 ° F 62.6 ° F 69% 30.09 pul - NE 10.4 mph - N/A   Despejado
11:00 PM 73.4 ° F 62.6 ° F 69% 30.09 pul - NNE 10.4 mph - N/A   Despejado